College Park, MD

3:18 PM EDT on March 27, 2017 (GMT -0400)
College Park

Weather History for KCGS - February, 2013

Change the Weather History Date:

Friday, February 15, 2013

  Actual Average Record
Temperature  
Mean Temperature 46 °F -  
Max Temperature 61 °F 47 °F 76 °F (1949)
Min Temperature 30 °F 27 °F 10 °F (1979)
Degree Days  
Heating Degree Days 20    
Moisture  
Dew Point 34 °F    
Average Humidity 74    
Maximum Humidity 100    
Minimum Humidity 30    
Precipitation  
Precipitation 0.00 in - - ()
Sea Level Pressure  
Sea Level Pressure 29.99 in    
Wind  
Wind Speed 2 mph (WSW)    
Max Wind Speed 17 mph    
Max Gust Speed 25 mph    
Visibility 8 miles    
Events      
Averages and records for this station are not official NWS values.
T = Trace of Precipitation, MM = Missing Value Source: NWS Daily Summary

Daily Weather History Graph

Daily Weather History Graph

Search for Another Location

Airport or City:

Trip Planner

Search our weather history database for the weather conditions in past years. The results will help you decide how hot, cold, wet, or windy it might be!

Date:

Astronomy

Feb. 15, 2013 Rise Set
Actual Time 6:58 AM EST 5:45 PM EST
Civil Twilight 6:31 AM EST 6:12 PM EST
Nautical Twilight 6:00 AM EST 6:43 PM EST
Astronomical Twilight 5:29 AM EST 7:14 PM EST
Moon 9:37 AM EST (2/15) 11:40 PM EST (2/15)
Length of Visible Light 11h 41m
Length of Day
10h 46m
Waxing Crescent, 30% of the Moon is Illuminated
Feb 15
Waxing Crescent
Feb 17
First Quarter
Feb 25
Full
Mar 4
Last Quarter
Mar 11
New

Hourly Weather History & Observations

Time (EST) Temp. Windchill Dew Point Humidity Pressure Visibility Wind Dir Wind Speed Gust Speed Precip Events Conditions
12:10 AM 32.4 °F - 32.0 °F 99% 30.02 in 7.0 mi Calm Calm - N/A   Clear
12:30 AM 32.0 °F - 32.0 °F 100% 30.02 in 7.0 mi Calm Calm - N/A   Clear
12:50 AM 32.0 °F - 32.0 °F 100% 30.01 in 7.0 mi Calm Calm - N/A   Clear
1:10 AM 32.0 °F - 32.0 °F 100% 30.01 in 7.0 mi Calm Calm - N/A   Clear
1:30 AM 32.0 °F - 32.0 °F 100% 30.01 in 7.0 mi Calm Calm - N/A   Clear
1:50 AM 31.8 °F - 31.8 °F 100% 30.01 in 5.0 mi Calm Calm - N/A   Clear
2:10 AM 31.6 °F - 31.6 °F 100% 30.01 in 7.0 mi Calm Calm - N/A   Clear
2:30 AM 31.1 °F - 31.1 °F 100% 30.00 in 7.0 mi Calm Calm - N/A   Clear
2:50 AM 31.5 °F - 31.5 °F 100% 30.01 in 4.0 mi Calm Calm - N/A   Clear
3:10 AM 32.0 °F - 32.0 °F 100% 30.01 in 7.0 mi Calm Calm - N/A   Clear
3:30 AM 32.0 °F - 32.0 °F 100% 30.01 in 7.0 mi Calm Calm - N/A   Clear
3:50 AM 31.1 °F - 31.1 °F 100% 30.01 in 7.0 mi Calm Calm - N/A   Clear
4:10 AM 30.9 °F - 30.9 °F 100% 30.00 in 5.0 mi Calm Calm - N/A   Clear
4:30 AM 31.8 °F - 31.8 °F 100% 30.01 in 5.0 mi Calm Calm - N/A   Clear
4:50 AM 31.8 °F - 31.8 °F 100% 30.01 in 5.0 mi Calm Calm - N/A   Clear
5:10 AM 32.0 °F - 32.0 °F 100% 30.01 in 4.0 mi Calm Calm - N/A   Clear
5:30 AM 31.1 °F - 31.1 °F 100% 30.01 in 7.0 mi Calm Calm - N/A   Clear
5:50 AM 31.8 °F - 31.8 °F 100% 30.02 in 7.0 mi Calm Calm - N/A   Clear
6:10 AM 31.6 °F - 31.6 °F 100% 30.02 in 1.8 mi Calm Calm - N/A   Unknown
6:30 AM 31.6 °F - 31.6 °F 100% 30.02 in 7.0 mi Calm Calm - N/A   Mostly Cloudy
6:50 AM 31.6 °F - 31.6 °F 100% 30.03 in 10.0 mi Calm Calm - N/A   Mostly Cloudy
7:10 AM 31.8 °F - 31.8 °F 100% 30.03 in 4.0 mi Calm Calm - N/A   Scattered Clouds
7:30 AM 31.8 °F - 31.8 °F 100% 30.03 in 5.0 mi Calm Calm - N/A   Clear
7:50 AM 32.5 °F - 32.5 °F 100% 30.03 in 3.0 mi Calm Calm - N/A   Clear
8:10 AM 34.5 °F - 34.5 °F 100% 30.03 in 4.0 mi Calm Calm - N/A   Clear
8:30 AM 37.8 °F - 37.8 °F 100% 30.04 in 7.0 mi Calm Calm - N/A   Clear
8:50 AM 41.5 °F - 38.7 °F 89% 30.04 in 10.0 mi Calm Calm - N/A   Clear
9:10 AM 44.4 °F - 38.3 °F 79% 30.04 in 10.0 mi Calm Calm - N/A   Clear
9:30 AM 46.9 °F - 36.9 °F 68% 30.04 in 10.0 mi Calm Calm - N/A   Clear
9:50 AM 49.3 °F - 36.1 °F 61% 30.04 in 10.0 mi Calm Calm - N/A   Clear
10:10 AM - - - N/A% 30.04 in - North - - N/A   Unknown
10:30 AM 51.8 °F - 36.1 °F 55% 30.04 in 10.0 mi Calm Calm - N/A   Clear
10:50 AM 53.8 °F - 36.3 °F 52% 30.03 in 10.0 mi Calm Calm - N/A   Clear
11:10 AM 55.0 °F - 36.7 °F 50% 30.02 in 10.0 mi South 3.5 mph - N/A   Clear
11:30 AM 56.3 °F - 35.8 °F 46% 30.01 in 10.0 mi South 3.5 mph - N/A   Clear
11:50 AM 57.7 °F - 35.4 °F 43% 30.00 in 10.0 mi Calm Calm - N/A   Clear
12:10 PM 58.6 °F - 33.1 °F 38% 29.99 in 10.0 mi SSE 5.8 mph - N/A   Clear
12:50 PM 60.1 °F - 30.7 °F 33% 29.97 in 10.0 mi SW 6.9 mph - N/A   Clear
1:10 PM 60.1 °F - 29.8 °F 32% 29.96 in 10.0 mi SSE 5.8 mph - N/A   Clear
1:30 PM 60.8 °F - 31.1 °F 33% 29.95 in 10.0 mi South 5.8 mph - N/A   Clear
1:50 PM 60.3 °F - 28.4 °F 30% 29.94 in 10.0 mi SSE 5.8 mph - N/A   Clear
2:10 PM 60.8 °F - 30.6 °F 32% 29.94 in 10.0 mi South 8.1 mph - N/A   Clear
2:30 PM 61.0 °F - 30.4 °F 32% 29.93 in 10.0 mi SSW 3.5 mph - N/A   Clear
2:50 PM 61.3 °F - 29.1 °F 30% 29.93 in 10.0 mi SSE 5.8 mph - N/A   Clear
3:10 PM 61.7 °F - 30.7 °F 31% 29.93 in 10.0 mi South 5.8 mph - N/A   Clear
3:30 PM 60.3 °F - 29.7 °F 31% 29.92 in 10.0 mi South 5.8 mph - N/A   Clear
3:50 PM 60.4 °F - 30.9 °F 33% 29.91 in 10.0 mi SSE 3.5 mph - N/A   Mostly Cloudy
4:10 PM 61.3 °F - 31.1 °F 32% 29.91 in 10.0 mi South 5.8 mph - N/A   Scattered Clouds
4:30 PM 60.6 °F - 31.1 °F 33% 29.90 in 10.0 mi SSW 3.5 mph - N/A   Clear
4:50 PM 60.3 °F - 30.6 °F 33% 29.89 in 10.0 mi SSW 3.5 mph - N/A   Clear
5:10 PM 59.9 °F - 30.4 °F 33% 29.89 in 10.0 mi SSW 4.6 mph - N/A   Mostly Cloudy
5:30 PM 59.5 °F - 30.4 °F 33% 29.89 in 10.0 mi Calm Calm - N/A   Overcast
5:50 PM 56.5 °F - 35.6 °F 46% 29.93 in 10.0 mi NNW 17.3 mph 25.3 mph N/A   Overcast
6:10 PM 50.5 °F - 38.3 °F 63% 29.94 in 10.0 mi NNW 12.7 mph 23.0 mph N/A   Overcast
6:30 PM 49.1 °F - 38.7 °F 67% 29.93 in 10.0 mi NNW 13.8 mph 18.4 mph N/A   Overcast
6:50 PM 47.8 °F - 38.3 °F 70% 29.94 in 10.0 mi North 11.5 mph 18.4 mph N/A   Overcast
7:10 PM 47.5 °F - 38.3 °F 70% 29.95 in 10.0 mi North 11.5 mph 16.1 mph N/A   Overcast
7:30 PM 46.9 °F - 37.8 °F 70% 29.97 in 10.0 mi NNW 8.1 mph - N/A   Overcast
7:50 PM 46.0 °F 41.9 °F 37.8 °F 73% 29.98 in 10.0 mi NNW 8.1 mph - N/A   Overcast
8:10 PM 45.5 °F 38.9 °F 37.6 °F 74% 30.00 in 10.0 mi NW 15.0 mph 20.7 mph N/A   Overcast
8:30 PM 44.6 °F 40.2 °F 37.6 °F 76% 30.01 in 10.0 mi NW 8.1 mph 20.7 mph N/A   Overcast
8:50 PM 43.7 °F 38.6 °F 37.9 °F 80% 30.02 in 10.0 mi North 9.2 mph - N/A   Overcast
9:10 PM 41.9 °F 35.0 °F 38.7 °F 88% 30.02 in 10.0 mi NNW 12.7 mph 19.6 mph N/A   Overcast
9:30 PM 40.6 °F 34.8 °F 38.7 °F 93% 30.03 in 10.0 mi North 9.2 mph 17.3 mph N/A   Overcast
9:50 PM 40.3 °F 36.3 °F 38.7 °F 94% 30.04 in 10.0 mi NW 5.8 mph - N/A   Overcast
10:10 PM 39.4 °F 33.8 °F 38.3 °F 96% 30.04 in 7.0 mi North 8.1 mph - N/A   Overcast
10:30 PM 38.3 °F 35.9 °F 37.4 °F 97% 30.04 in 7.0 mi North 3.5 mph - N/A   Mostly Cloudy
10:50 PM 37.9 °F 35.5 °F 37.4 °F 98% 30.04 in 10.0 mi North 3.5 mph - N/A   Mostly Cloudy
11:10 PM 37.9 °F - 37.8 °F 99% 30.04 in 10.0 mi Calm Calm - N/A   Overcast
11:30 PM 37.6 °F - 37.4 °F 99% 30.04 in 10.0 mi Calm Calm - N/A   Overcast
11:50 PM 37.6 °F - 37.4 °F 99% 30.04 in 10.0 mi Calm Calm - N/A   Overcast